Regional Weather Roundup
Issued by NWS Cleveland, OH

Home | Current Version | Previous Version | Text Only | Print | Product List | Glossary Off
Versions: 1 2 3 4 5 6 7 8 9 10 11 12 13 14 15 16 17 18 19 20 21 22 23 24 25 26 27 28 29 30 31 32 33 34 35 36 37 38 39 40 41 42 43 44 45 46 47 48 49 50

000
ASUS41 KCLE 252000
RWRCLE
OHIO REGIONAL WEATHER ROUNDUP
NATIONAL WEATHER SERVICE WILMINGTON, OH
400 PM EDT TUE APR 25 2017

NOTE: "FAIR" INDICATES FEW OR NO CLOUDS BELOW 12,000 FEET WITH NO
SIGNIFICANT WEATHER AND/OR OBSTRUCTIONS TO VISIBILITY.

OHZ001>008-015>018-024>027-034-035-043-044-252100-
   NORTHWEST OHIO

CITY           SKY/WX    TMP DP  RH WIND       PRES   REMARKS
DEFIANCE       FAIR      74  53  48 SE10      29.72F
FINDLAY        FAIR      77  52  41 SE7G20    29.71F
TOLEDO EXPRESS PTSUNNY   73  56  54 E12       29.73F
TOLEDO EXEC    FAIR      71  57  61 E10       29.75F
LIMA           FAIR      75  54  47 SE13      29.72F
$$

OHZ009>014-019>023-028>033-038-089-252100-
   NORTHEAST OHIO

CITY           SKY/WX    TMP DP  RH WIND       PRES   REMARKS
CLE-HOPKINS    FAIR      76  52  43 SE10G21   29.79F
CLE-LAKEFRONT  PTSUNNY   57  51  80 NE18      29.77F
CUY CO. ARPT   PTSUNNY   75  55  50 SE17      29.79F
LORAIN-ELYRIA  FAIR      73  52  47 S16       29.77F
ASHTABULA      PTSUNNY   71  54  54 SE12      29.83F
AKRON-CANTON   PTSUNNY   68  52  56 SE15      29.81F
WOOSTER        NOT AVBL
MANSFIELD      PTSUNNY   74  54  49 E15       29.77F
YOUNGSTOWN     CLOUDY    66  52  60 SE10      29.83F
$$

OHZ042-051>053-060>062-070>072-077>081-252100-
  SOUTHWEST OHIO

CITY           SKY/WX    TMP DP  RH WIND       PRES   REMARKS
CINC-COVINGTON PTSUNNY   74  58  57 S6        29.72F
CINC-LUNKEN    PTSUNNY   76  61  59 SW6       29.71F
HAMILTON       FAIR      76  58  53 VRB3      29.72F
DAYTON         NOT AVBL
WRIGHT-PAT AFB FAIR      77  55  46 S5        29.71F
DAYTON GENERAL PTSUNNY   73  56  54 S7        29.71F
WILMINGTON     FAIR      74  58  57 S3        29.73F
$$

OHZ036-037-039>041-045>050-054>059-063>069-073>076-082>088-252100-
  CENTRAL AND SOUTHEAST OHIO

CITY           SKY/WX    TMP DP  RH WIND       PRES   REMARKS
COLUMBUS       CLOUDY    76  55  48 SE7       29.73F
OSU AIRPORT    CLOUDY    72  54  53 SE3       29.73F
BOLTON FIELD   PTSUNNY   73  55  53 E6        29.74
RICKENBACK AFB NOT AVBL
NEWARK         PTSUNNY   76  53  44 SE10      29.74F
MARION         FAIR      75  52  44 S10G18    29.74F
LANCASTER      CLOUDY    73  56  54 SE6       29.74F
ZANESVILLE     CLOUDY    70  54  56 E8        29.77F
NEW PHILLY     CLOUDY    68  55  63 E13       29.80F
$$




USA.gov is the U.S. government's official web portal to all federal, state and local government web resources and services.